Location: Bailleul
(50.3375°N, 2.8513°E)
Time: 19:25:22
(UTC+00:00)

Terra - Pass Details

Date: 06 August 2021
Orbit: 701 x 703 km, 98.2° (Epoch: 17 September)

Event Time Altitude Azimuth Distance (km) Brightness Sun altitude
Exits shadow 21:37:35 27° 169° (S) 1,332 2.7 -16.8°
Maximum altitude 21:40:11 84° 255° (WSW) 716 1.8 -17.0°
Drops below altitude 10° 21:45:00 10° 344° (NNW) 2,184 5.5 -17.4°
Sets 21:47:16 0° 346° (NNW) 3,107 6.6 -17.6°
